Santa Rosa, CA

6:31 PM PDT on March 26, 2017 (GMT -0700)
Sonoma County

Weather History for KSTS - April, 2014

Change the Weather History Date:

Sunday, April 20, 2014

  Actual Average Record
Temperature  
Mean Temperature 62 °F 56 °F  
Max Temperature 81 °F 70 °F 93 °F (2009)
Min Temperature 43 °F 43 °F 32 °F (2008)
Degree Days  
Heating Degree Days 3    
Month to date heating degree days 129  
Since 1 July heating degree days 2336  
Cooling Degree Days 0    
Month to date cooling degree days 1  
Year to date cooling degree days 1  
Growing Degree Days 12 (Base 50)    
Moisture  
Dew Point 46 °F    
Average Humidity 63    
Maximum Humidity 100    
Minimum Humidity 25    
Precipitation  
Precipitation 0.00 in 0.07 in 0.63 in (2001)
Month to date precipitation 0.62 1.51  
Year to date precipitation 12.44 19.94  
Since 1 July precipitation 14.46  
Sea Level Pressure  
Sea Level Pressure 30.08 in    
Wind  
Wind Speed 4 mph (SW)    
Max Wind Speed 14 mph    
Max Gust Speed 17 mph    
Visibility 9 miles    
Events      
T = Trace of Precipitation, MM = Missing Value Source: NWS Daily Summary

Daily Weather History Graph

Daily Weather History Graph

Search for Another Location

Airport or City:

Trip Planner

Search our weather history database for the weather conditions in past years. The results will help you decide how hot, cold, wet, or windy it might be!

Date:

Astronomy

Apr. 20, 2014 Rise Set
Actual Time 6:28 AM PDT 7:52 PM PDT
Civil Twilight 6:00 AM PDT 8:20 PM PDT
Nautical Twilight 5:27 AM PDT 8:53 PM PDT
Astronomical Twilight 4:52 AM PDT 9:29 PM PDT
Moon 12:35 AM PDT (4/20) 10:55 AM PDT (4/20)
Length of Visible Light 14h 20m
Length of Day
13h 24m
Waning Gibbous, 67% of the Moon is Illuminated
Apr 20
Waning Gibbous
Apr 22
Last Quarter
Apr 28
New
May 6
First Quarter
May 14
Full

Hourly Weather History & Observations

Time (PDT) Temp. Windchill Dew Point Humidity Pressure Visibility Wind Dir Wind Speed Gust Speed Precip Events Conditions
12:53 AM 51.1 °F - 48.9 °F 92% 30.09 in 10.0 mi Calm Calm - N/A   Clear
1:53 AM 48.9 °F - 46.9 °F 93% 30.09 in 10.0 mi Calm Calm - N/A   Clear
2:53 AM 48.9 °F - 46.9 °F 93% 30.08 in 10.0 mi Calm Calm - N/A   Clear
3:53 AM 46.9 °F - 46.0 °F 97% 30.09 in 10.0 mi Calm Calm - N/A   Clear
4:00 AM 46.9 °F - 46.0 °F 97% 30.11 in 1.5 mi Calm Calm - N/A   Clear
4:10 AM 46.9 °F - 46.0 °F 97% 30.11 in 3.0 mi Calm Calm - N/A   Clear
4:16 AM 46.9 °F - 46.0 °F 97% 30.11 in 1.8 mi Calm Calm - N/A   Clear
4:25 AM 46.0 °F - 45.0 °F 96% 30.10 in 1.5 mi Calm Calm - N/A   Partly Cloudy
4:34 AM 45.0 °F - 45.0 °F 100% 30.10 in 8.0 mi Calm Calm - N/A   Clear
4:53 AM 45.0 °F 42.6 °F 45.0 °F 100% 30.09 in 10.0 mi West 4.6 mph - N/A   Clear
5:53 AM 45.0 °F 43.5 °F 44.1 °F 97% 30.09 in 10.0 mi WNW 3.5 mph - N/A   Clear
6:53 AM 44.1 °F 40.1 °F 43.0 °F 96% 30.10 in 10.0 mi NW 6.9 mph - N/A   Partly Cloudy
7:53 AM 50.0 °F - 48.0 °F 93% 30.12 in 10.0 mi WNW 3.5 mph - N/A   Clear
8:53 AM 55.9 °F - 50.0 °F 80% 30.11 in 10.0 mi Calm Calm - N/A   Scattered Clouds
9:53 AM 60.1 °F - 50.0 °F 69% 30.12 in 10.0 mi Calm Calm - N/A   Scattered Clouds
10:53 AM 68.0 °F - 46.0 °F 45% 30.12 in 10.0 mi North 5.8 mph - N/A   Scattered Clouds
11:53 AM 73.0 °F - 44.1 °F 35% 30.11 in 10.0 mi North 3.5 mph - N/A   Scattered Clouds
12:53 PM 77.0 °F - 46.0 °F 33% 30.09 in 10.0 mi NW 4.6 mph - N/A   Clear
1:53 PM 79.0 °F - 44.1 °F 29% 30.07 in 10.0 mi Calm Calm - N/A   Clear
2:53 PM 81.0 °F - 48.0 °F 31% 30.05 in 10.0 mi South 8.1 mph - N/A   Clear
3:53 PM 79.0 °F - 42.1 °F 27% 30.03 in 10.0 mi SW 9.2 mph - N/A   Clear
4:53 PM 79.0 °F - 39.0 °F 24% 30.02 in 10.0 mi SW 6.9 mph - N/A   Clear
5:53 PM 75.9 °F - 46.9 °F 36% 30.01 in 10.0 mi SSE 9.2 mph - N/A   Clear
6:53 PM 66.0 °F - 48.9 °F 54% 30.02 in 10.0 mi SE 9.2 mph - N/A   Clear
7:53 PM 61.0 °F - 48.0 °F 62% 30.03 in 10.0 mi SSW 4.6 mph - N/A   Clear
8:53 PM 57.0 °F - 48.0 °F 72% 30.04 in 10.0 mi South 4.6 mph - N/A   Clear
9:53 PM 55.0 °F - 46.0 °F 72% 30.05 in 10.0 mi SSW 4.6 mph - N/A   Clear
10:53 PM 51.1 °F - 46.0 °F 83% 30.04 in 10.0 mi South 4.6 mph - N/A   Clear
11:53 PM 50.0 °F - 45.0 °F 83% 30.04 in 10.0 mi South 4.6 mph - N/A   Clear